• Join FlightAware (Why Join?)
  • Login
  • US Flag 
06:58PM EDT


 

Airport Tracker/Info


-or-


 

Live Flight TrackerFlight Track Log ✈ FLG4222 ✈ 01-Dec-2013 ✈ KDTW - KBGM

Flight Track Log - Related Links

Times and Time Zones

All times are in EST time to prevent confusion due to time zone crossing. See the FLG4222 flight status page for this flight to view local times or setup timezone preferences in your user account.

Time Position Orientation Groundspeed Altitude Reporting Facility
EST Latitude Longitude Course Direction KTS MPH feet Rate Location/Type
10:29AM 42.2031 -83.3525 179° South 154 177 1,400  Level Cleveland Center
10:30AM 42.1569 -83.3517 179° South 197 227 3,700 2,040 Climbing Cleveland Center
10:31AM 42.1386 -83.3494 175° South 192 221 4,400 2,040 Climbing Cleveland Center
10:31AM 42.1039 -83.3078 138° Southeast 268 308 5,800 2,700 Climbing Cleveland Center
10:32AM 42.0831 -83.2619 121° Southeast 262 302 7,200 2,640 Climbing Cleveland Center
10:32AM 42.0797 -83.2114 95° East 306 352 8,500 2,700 Climbing Cleveland Center
10:33AM 42.1006 -83.1589 62° Northeast 297 342 10,000 2,160 Climbing Cleveland Center
10:34AM 42.1417 -83.0525 62° Northeast 320 368 12,000 1,980 Climbing Cleveland Center
10:35AM 42.1872 -82.9344 62° Northeast 351 404 14,100 1,920 Climbing Cleveland Center
10:36AM 42.2328 -82.8117 63° Northeast 366 421 16,000 1,740 Climbing Cleveland Center
10:37AM 42.2906 -82.6586 63° Northeast 380 437 17,700 1,680 Climbing Cleveland Center
10:38AM 42.3425 -82.5236 62° Northeast 401 461 19,500 1,500 Climbing Cleveland Center
10:39AM 42.3675 -82.3753 77° East 420 483 20,900 1,320 Climbing Cleveland Center
10:40AM 42.3586 -82.2167 94° East 424 488 22,300 1,020 Climbing Cleveland Center
10:41AM 42.3503 -82.0403 94° East 431 496 23,100 1,140 Climbing Cleveland Center
10:42AM 42.3428 -81.8708 93° East 443 510 24,700 900 Climbing Cleveland Center
10:43AM 42.3350 -81.7017 94° East 445 512 25,000 480 Climbing Cleveland Center
10:44AM 42.3261 -81.5242 94° East 461 531 25,800 840 Climbing Cleveland Center
10:45AM 42.3192 -81.3478 93° East 464 534 26,800 540 Climbing Cleveland Center
10:46AM 42.3086 -81.1422 94° East 466 536 27,000 60 Climbing Cleveland Center
10:47AM 42.2983 -80.9575 94° East 481 554 27,000  Level Cleveland Center
10:48AM 42.2892 -80.7750 94° East 484 557 27,000  Level Cleveland Center
10:49AM 42.2803 -80.5969 94° East 474 545 27,000  Level Cleveland Center
10:50AM 42.2697 -80.4142 94° East 481 554 27,000  Level Cleveland Center
10:51AM 42.2592 -80.2333 94° East 480 552 27,000  Level Cleveland Center
10:53AM 42.2481 -80.0494 95° East 487 560 27,000  Level Cleveland Center
10:54AM 42.2364 -79.8714 95° East 479 551 27,000  Level Cleveland Center
10:55AM 42.2228 -79.6542 95° East 486 559 27,000  Level Cleveland Center
10:56AM 42.2114 -79.4736 95° East 485 558 27,000  Level Cleveland Center
10:57AM 42.1986 -79.2942 95° East 484 557 27,000  Level Cleveland Center
10:58AM 42.1875 -79.1142 95° East 483 556 27,000  Level Cleveland Center
10:59AM 42.1908 -78.9328 89° East 486 559 27,000  Level Cleveland Center
11:00AM 42.1956 -78.7181 88° East 484 557 27,000 -600 Level Cleveland Center
11:01AM 42.1983 -78.5386 89° East 482 555 25,800 -1,560 Descending Cleveland Center
11:02AM 42.2006 -78.3628 89° East 475 547 23,800 -1,980 Descending Cleveland Center
11:03AM 42.2028 -78.1925 89° East 461 531 21,800 -1,980 Descending Cleveland Center
11:04AM 42.2044 -78.0250 89° East 453 521 19,800 -1,800 Descending Cleveland Center
11:05AM 42.2064 -77.8331 89° East 436 502 18,100 -1,500 Descending Cleveland Center
11:06AM 42.2075 -77.6783 89° East 422 486 16,700 -1,440 Descending Cleveland Center
11:07AM 42.2083 -77.5281 90° East 410 472 15,200 -1,440 Descending Cleveland Center
11:08AM 42.2089 -77.3825 90° East 396 456 13,800 -1,440 Descending Cleveland Center
11:09AM 42.2094 -77.2372 90° East 393 452 12,300 -1,500 Descending Cleveland Center
11:10AM 42.2106 -77.0675 89° East 394 453 10,600 -1,140 Descending New York Center
11:11AM 42.2103 -76.9525 90° East 343 395 10,000 -840 Descending New York Center
11:12AM 42.2097 -76.8378 90° East 316 364 9,000 -540 Descending New York Center
11:13AM 42.2169 -76.7375 84° East 303 349 9,000 -720 Level New York Center
11:14AM 42.2244 -76.6292 85° East 298 343 7,600 -1,740 Descending New York Center
11:15AM 42.2361 -76.5181 82° East 293 337 5,600 -1,320 Descending New York Center
11:16AM 42.2450 -76.4181 83° East 288 331 5,000 -300 Descending New York Center
11:17AM 42.2539 -76.3178 83° East 275 316 5,000 -420 Level New York Center
11:18AM 42.2606 -76.2203 85° East 264 304 4,200 -960 Descending New York Center
11:19AM 42.2669 -76.1256 85° East 258 297 3,100 -600 Descending New York Center
11:20AM 42.2706 -76.0419 87° East 241 277 3,000 -420 Descending New York Center
11:21AM 42.2369 -76.0028 139° Southeast 169 194 2,300 -420 Descending New York Center
11:22AM 42.2211 -75.9372 108° East 161 185 2,200 -120 Descending New York Center